Temp
-4 -4 -5 -5 -4 -4 -4 -4 -4 -5 -5 -4 -4 -5 -4 -5 -5 -5 -4 -5 -5 -5 -5 -4 -4 -4 -4 -4 -4 -4 -5 -5 -5 -4 -4 -5 -5 -5 -5 -6 -5 -6 -6 -6 -6 -6 -6 -6 -6
-4 -5 -5 -4 -3 -4 -4 -4 -4 -4 -4 -4 -4 -4 -5 -4 -4 -5 -5 -5 -5 -5 -5 -4 -4 -4 -4 -4 -4 -5 -5 -5 -4 -5 -4 -5 -5 -5 -5 -5 -5 -6 -6 -6 -6 -6 -6 -6 -7
-5 -5 -5 -4 -5 -3 -4 -4 -4 -4 -4 -5 -5 -5 -5 -5 -5 -5 -4 -5 -5 -5 -5 -5 -4 -4 -4 -4 -4 -4 -4 -5 -5 -4 -4 -5 -5 -5 -5 -5 -6 -6 -6 -6 -6 -6 -6 -6 -6
-5 -4 -4 -7 -5 -5 -5 -4 -4 -4 -4 -5 -5 -5 -5 -5 -5 -4 -5 -5 -5 -5 -5 -5 -5 -4 -5 -4 -4 -4 -5 -5 -5 -5 -5 -5 -5 -5 -5 -5 -5 -6 -6 -6 -6 -6 -6 -6 -6
-5 -5 -6 -5 -5 -5 -4 -4 -4 -4 -4 -4 -5 -5 -5 -5 -5 -5 -5 -5 -5 -5 -6 -5 -5 -5 -5 -4 -4 -5 -5 -5 -5 -5 -5 -5 -5 -5 -5 -5 -6 -6 -5 -6 -6 -6 -6 -6 -6
-4 -4 -6 -6 -6 -5 -5 -4 -5 -4 -5 -5 -5 -5 -5 -6 -5 -5 -5 -5 -5 -5 -5 -5 -5 -5 -5 -5 -5 -5 -5 -5 -5 -5 -5 -5 -5 -5 -5 -5 -6 -6 -6 -5 -6 -5 -5 -6 -6
-4 -5 -5 -6 -6 -6 -5 -5 -5 -5 -5 -5 -5 -5 -5 -5 -5 -5 -5 -5 -5 -5 -5 -5 -5 -5 -5 -5 -5 -5 -5 -5 -5 -5 -5 -5 -5 -5 -5 -5 -5 -6 -6 -6 -6 -5 -6 -6 -6
-3 -3 -5 -7 -7 -6 -5 -5 -5 -5 -5 -6 -4 -4 -5 -5 -5 -5 -5 -5 -6 -5 -5 -5 -5 -5 -5 -5 -5 -5 -5 -5 -5 -5 -5 -5 -5 -5 -5 -6 -6 -6 -6 -6 -6 -6 -6 -5 -6
-6 -5 -6 -5 -6 -5 -5 -5 -5 -5 -5 -4 -5 -5 -5 -5 -5 -6 -6 -6 -6 -5 -5 -5 -5 -5 -5 -5 -5 -5 -5 -6 -5 -5 -5 -5 -5 -5 -6 -6 -6 -6 -6 -5 -6 -6 -6 -6 -6
-6 -6 -6 -5 -5 -5 -5 -5 -5 -5 -5 -5 -5 -5 -5 -5 -5 -6 -6 -5 -5 -7 -6 -5 -5 -5 -6 -5 -5 -5 -6 -6 -6 -6 -6 -6 -6 -6 -6 -6 -5 -6 -6 -6 -6 -6 -6 -6 -6
-8 -7 -5 -5 -5 -5 -5 -5 -4 -5 -5 -6 -5 -5 -6 -5 -5 -6 -6 -5 -6 -6 -6 -6 -6 -6 -6 -6 -5 -6 -5 -6 -6 -6 -6 -6 -6 -5 -6 -5 -6 -6 -6 -6 -6 -6 -6 -6 -6
-7 -6 -5 -5 -6 -6 -6 -5 -7 -8 -7 -5 -5 -5 -6 -5 -5 -5 -5 -6 -7 -8 -7 -6 -7 -6 -6 -5 -5 -5 -5 -6 -6 -6 -6 -5 -6 -5 -5 -5 -6 -6 -6 -6 -6 -6 -6 -6 -6
-6 -5 -5 -5 -6 -5 -5 -6 -7 -7 -7 -7 -5 -5 -6 -7 -7 -7 -7 -7 -8 -7 -6 -6 -6 -7 -5 -5 -5 -5 -5 -6 -5 -6 -5 -5 -6 -6 -6 -6 -6 -6 -6 -6 -6 -6 -6 -6 -6
-6 -5 -6 -6 -6 -5 -5 -6 -5 -7 -7 -7 -7 -6 -6 -6 -7 -7 -7 -8 -7 -7 -6 -6 -6 -6 -6 -6 -5 -5 -5 -5 -5 -5 -5 -5 -5 -6 -6 -6 -6 -6 -6 -6 -6 -6 -6 -6 -7
-7 -5 -5 -6 -7 -5 -4 -4 -5 -7 -7 -6 -7 -6 -6 -6 -6 -6 -6 -6 -6 -6 -6 -6 -6 -5 -6 -6 -6 -6 -6 -5 -5 -5 -5 -5 -5 -6 -6 -6 -6 -6 -6 -6 -6 -6 -6 -7 -7
-6 -5 -5 -6 -6 -5 -4 -4 -5 -6 -6 -6 -6 -6 -6 -6 -6 -6 -6 -6 -6 -6 -6 -6 -6 -6 -6 -6 -6 -6 -6 -6 -5 -5 -5 -5 -6 -6 -6 -6 -6 -6 -6 -6 -6 -6 -6 -7 -7
-6 -6 -7 -6 -7 -6 -5 -6 -6 -5 -6 -6 -5 -5 -5 -6 -6 -6 -6 -6 -6 -6 -6 -6 -6 -6 -6 -6 -6 -6 -6 -6 -5 -5 -5 -5 -6 -6 -6 -6 -6 -6 -6 -6 -7 -7 -7 -7 -7
-7 -6 -7 -6 -6 -7 -6 -6 -6 -5 -6 -6 -6 -5 -5 -5 -5 -6 -6 -6 -6 -5 -5 -5 -6 -6 -5 -6 -6 -6 -6 -6 -5 -5 -5 -6 -6 -6 -6 -6 -6 -6 -6 -7 -7 -7 -7 -7 -7
-7 -7 -6 -7 -6 -7 -6 -6 -6 -6 -5 -5 -5 -5 -6 -6 -6 -5 -5 -6 -6 -6 -5 -5 -5 -6 -6 -6 -6 -6 -6 -5 -5 -5 -5 -5 -6 -6 -7 -6 -6 -6 -6 -7 -7 -7 -7 -7 -6
-7 -7 -6 -6 -6 -6 -6 -6 -6 -6 -7 -6 -6 -6 -5 -6 -6 -6 -6 -5 -5 -6 -6 -5 -5 -5 -6 -6 -6 -6 -6 -5 -5 -4 -5 -5 -6 -6 -7 -7 -6 -6 -7 -7 -7 -6 -7 -6 -6
-7 -6 -6 -6 -6 -6 -6 -6 -6 -6 -7 -7 -6 -6 -6 -5 -5 -6 -6 -6 -5 -5 -5 -6 -6 -6 -5 -6 -6 -6 -6 -5 -4 -6 -6 -6 -6 -7 -7 -7 -6 -6 -7 -7 -7 -6 -7 -6 -6
-7 -6 -6 -6 -6 -6 -6 -5 -5 -4 -4 -4 -6 -6 -6 -6 -5 -5 -5 -6 -6 -5 -5 -6 -6 -6 -6 -6 -6 -5 -5 -5 -6 -6 -7 -6 -6 -6 -7 -7 -6 -7 -6 -7 -7 -7 -6 -6 -6
-6 -6 -5 -5 -5 -6 -5 -5 -5 -6 -6 -5 -6 -6 -6 -6 -6 -6 -5 -5 -6 -6 -5 -5 -5 -6 -6 -6 -5 -5 -5 -6 -6 -7 -7 -7 -6 -7 -7 -7 -7 -7 -7 -6 -7 -7 -7 -6 -6
-6 -5 -5 -5 -5 -6 -5 -5 -5 -6 -6 -7 -7 -7 -6 -6 -6 -6 -5 -5 -5 -6 -5 -5 -5 -5 -6 -5 -5 -6 -5 -6 -6 -7 -6 -7 -6 -6 -7 -7 -7 -7 -6 -6 -7 -7 -7 -6 -6
-7 -6 -5 -5 -5 -4 -4 -5 -6 -7 -7 -7 -7 -6 -6 -6 -6 -6 -6 -5 -6 -5 -6 -6 -5 -5 -5 -6 -6 -6 -6 -6 -6 -6 -6 -6 -6 -7 -6 -6 -6 -6 -6 -6 -6 -7 -7 -6 -6
-7 -7 -6 -6 -5 -6 -5 -6 -5 -6 -8 -7 -6 -6 -6 -6 -6 -6 -6 -6 -6 -6 -6 -6 -6 -5 -5 -6 -6 -6 -6 -7 -6 -6 -6 -6 -6 -6 -6 -7 -7 -7 -6 -6 -7 -7 -7 -6 -6
-7 -7 -7 -6 -5 -5 -5 -5 -6 -7 -7 -7 -6 -6 -6 -6 -6 -6 -6 -6 -6 -6 -6 -6 -6 -6 -5 -6 -6 -6 -6 -6 -6 -6 -6 -6 -6 -6 -6 -6 -6 -6 -6 -6 -7 -7 -7 -6 -7
-7 -7 -7 -6 -6 -6 -5 -5 -6 -7 -6 -7 -6 -6 -6 -6 -6 -6 -6 -6 -6 -6 -6 -5 -6 -6 -6 -6 -6 -6 -6 -7 -7 -7 -7 -7 -6 -6 -6 -6 -6 -6 -6 -7 -7 -7 -7 -7 -7
-7 -8 -7 -7 -6 -6 -5 -6 -6 -6 -6 -6 -7 -7 -7 -7 -7 -5 -5 -6 -6 -6 -6 -6 -6 -6 -6 -6 -6 -6 -6 -7 -7 -7 -7 -7 -7 -6 -6 -6 -6 -6 -7 -7 -7 -7 -7 -7 -7
-7 -6 -7 -7 -7 -6 -6 -7 -8 -7 -7 -7 -6 -7 -7 -7 -7 -6 -5 -6 -8 -7 -7 -7 -7 -7 -6 -6 -7 -7 -7 -7 -7 -7 -7 -7 -7 -7 -7 -7 -7 -7 -7 -7 -7 -8 -8 -8 -8
Height
5878 5878 5878 5878 5879 5876 5875 5877 5877 5879 5880 5881 5882 5884 5886 5887 5889 5891 5890 5891 5893 5896 5898 5899 5901 5903 5905 5906 5907 5907 5909 5910 5908 5907 5906 5908 5908 5908 5908 5907 5908 5908 5909 5909 5909 5909 5910 5910 5909
5881 5881 5881 5879 5877 5877 5877 5878 5877 5878 5879 5880 5880 5881 5884 5886 5888 5889 5890 5892 5893 5895 5898 5900 5902 5904 5906 5907 5907 5909 5911 5910 5910 5910 5910 5910 5910 5910 5911 5910 5910 5911 5911 5912 5911 5912 5912 5913 5912
5884 5882 5882 5881 5880 5878 5877 5877 5876 5876 5878 5879 5879 5881 5882 5884 5886 5888 5890 5892 5894 5896 5900 5901 5903 5905 5907 5908 5910 5911 5912 5912 5911 5912 5912 5912 5912 5912 5913 5913 5913 5913 5913 5914 5913 5914 5915 5915 5915
5888 5886 5884 5883 5881 5879 5879 5875 5875 5875 5877 5878 5879 5880 5882 5884 5886 5888 5890 5892 5894 5896 5899 5901 5904 5906 5909 5909 5912 5912 5913 5913 5914 5914 5914 5915 5915 5914 5915 5916 5915 5915 5916 5916 5915 5916 5917 5917 5917
5887 5884 5883 5885 5883 5881 5880 5877 5875 5874 5875 5876 5878 5880 5881 5882 5880 5884 5887 5890 5893 5896 5899 5902 5904 5906 5909 5911 5912 5914 5914 5915 5915 5915 5915 5917 5917 5917 5917 5917 5917 5917 5918 5918 5918 5918 5919 5919 5919
5884 5863 5890 5887 5884 5883 5881 5879 5876 5875 5874 5875 5877 5879 5880 5880 5880 5878 5883 5887 5889 5894 5899 5902 5904 5907 5910 5911 5913 5915 5916 5917 5917 5917 5916 5918 5919 5919 5919 5920 5920 5920 5920 5920 5920 5921 5921 5921 5920
5888 5877 5882 5888 5888 5886 5883 5879 5877 5877 5876 5876 5876 5877 5879 5879 5879 5877 5880 5884 5889 5894 5899 5902 5905 5907 5910 5912 5914 5917 5917 5918 5919 5919 5919 5919 5921 5921 5921 5922 5922 5922 5922 5922 5922 5923 5923 5923 5923
5895 5877 5884 5889 5890 5890 5887 5883 5882 5878 5876 5876 5875 5876 5878 5878 5879 5881 5881 5884 5890 5894 5899 5903 5905 5908 5910 5913 5915 5917 5919 5919 5920 5921 5920 5921 5922 5923 5923 5923 5923 5924 5924 5924 5924 5924 5925 5925 5925
5891 5894 5893 5891 5894 5893 5889 5886 5884 5883 5880 5878 5876 5876 5877 5877 5876 5874 5878 5886 5888 5895 5900 5903 5906 5909 5912 5914 5916 5918 5920 5920 5920 5922 5922 5922 5924 5924 5924 5925 5925 5925 5924 5925 5925 5925 5926 5927 5927
5894 5900 5895 5893 5895 5895 5892 5890 5889 5886 5883 5880 5878 5876 5876 5876 5875 5876 5879 5885 5889 5895 5899 5904 5908 5912 5913 5915 5918 5920 5920 5922 5921 5923 5923 5924 5923 5924 5925 5926 5926 5926 5926 5926 5925 5925 5926 5927 5927
5900 5910 5898 5896 5899 5898 5895 5893 5891 5888 5887 5885 5884 5882 5881 5881 5881 5880 5885 5886 5889 5894 5900 5907 5909 5911 5914 5917 5918 5920 5920 5922 5922 5923 5924 5925 5926 5926 5926 5926 5927 5926 5926 5926 5926 5926 5926 5928 5928
5908 5908 5902 5901 5902 5901 5899 5896 5893 5893 5893 5890 5888 5886 5885 5884 5886 5884 5886 5889 5893 5898 5904 5907 5910 5910 5912 5917 5919 5920 5922 5921 5922 5923 5924 5926 5926 5926 5927 5927 5925 5925 5925 5926 5927 5927 5926 5927 5928
5910 5907 5906 5906 5907 5906 5904 5901 5900 5898 5896 5893 5892 5890 5889 5888 5888 5890 5892 5894 5896 5902 5906 5908 5908 5911 5912 5917 5919 5922 5922 5922 5923 5924 5925 5925 5926 5927 5927 5927 5925 5920 5925 5927 5927 5927 5926 5927 5927
5912 5911 5911 5909 5908 5910 5910 5908 5902 5901 5899 5897 5894 5894 5893 5893 5894 5896 5898 5900 5904 5906 5908 5910 5911 5913 5916 5919 5920 5922 5922 5923 5924 5925 5925 5925 5926 5927 5927 5927 5926 5926 5927 5927 5927 5927 5927 5927 5928
5908 5905 5893 5911 5907 5911 5914 5909 5903 5902 5904 5901 5899 5897 5896 5897 5897 5899 5900 5902 5905 5908 5910 5912 5914 5916 5918 5920 5921 5922 5923 5922 5924 5924 5924 5925 5926 5926 5927 5926 5927 5927 5927 5927 5927 5926 5927 5928 5929
5908 5909 5908 5913 5910 5910 5910 5907 5901 5904 5907 5905 5903 5902 5901 5900 5899 5900 5901 5903 5906 5909 5911 5913 5915 5917 5919 5921 5922 5922 5922 5922 5923 5923 5925 5925 5926 5924 5921 5926 5926 5926 5928 5927 5928 5926 5927 5929 5929
5912 5912 5906 5916 5913 5908 5906 5895 5898 5906 5909 5908 5907 5906 5904 5903 5903 5903 5904 5905 5906 5908 5910 5911 5913 5915 5917 5918 5919 5919 5920 5920 5921 5921 5922 5923 5924 5923 5922 5923 5925 5926 5927 5928 5928 5928 5929 5930 5931
5909 5912 5901 5920 5921 5918 5915 5909 5912 5907 5912 5912 5910 5909 5907 5907 5906 5905 5905 5905 5906 5907 5908 5909 5911 5914 5915 5915 5915 5916 5916 5916 5917 5918 5919 5920 5921 5921 5921 5922 5924 5924 5925 5927 5928 5928 5929 5930 5931
5914 5920 5922 5917 5918 5917 5920 5919 5909 5909 5912 5914 5912 5912 5910 5909 5908 5908 5907 5907 5908 5908 5908 5909 5909 5912 5912 5913 5913 5913 5914 5916 5916 5918 5919 5919 5919 5919 5920 5921 5923 5922 5925 5926 5927 5930 5931 5932 5933
5914 5917 5920 5917 5918 5916 5921 5923 5916 5910 5914 5911 5911 5912 5912 5912 5911 5910 5909 5909 5908 5908 5908 5909 5910 5911 5911 5911 5911 5913 5914 5914 5915 5918 5916 5916 5918 5918 5917 5920 5922 5922 5925 5927 5928 5930 5931 5932 5934
5914 5917 5920 5917 5914 5914 5922 5916 5912 5892 5904 5912 5912 5914 5914 5914 5913 5911 5910 5910 5909 5908 5907 5907 5909 5910 5910 5910 5911 5912 5913 5912 5915 5912 5900 5911 5914 5915 5916 5918 5921 5924 5924 5927 5928 5930 5930 5931 5933
5914 5916 5915 5916 5917 5916 5920 5916 5912 5909 5907 5910 5912 5914 5915 5915 5914 5913 5912 5910 5909 5909 5908 5907 5908 5909 5909 5909 5910 5909 5909 5910 5915 5914 5909 5912 5915 5911 5913 5916 5919 5922 5923 5925 5927 5929 5930 5932 5933
5908 5909 5909 5912 5912 5914 5918 5920 5905 5908 5908 5907 5908 5913 5914 5914 5915 5914 5912 5911 5910 5909 5908 5908 5908 5909 5910 5910 5910 5908 5909 5910 5911 5909 5909 5909 5910 5908 5909 5912 5916 5920 5921 5923 5927 5929 5930 5932 5933
5908 5910 5910 5911 5911 5913 5915 5918 5904 5909 5909 5910 5910 5910 5912 5913 5915 5913 5913 5911 5910 5908 5908 5908 5908 5909 5910 5910 5909 5908 5909 5913 5909 5909 5905 5909 5910 5907 5906 5910 5914 5918 5920 5922 5926 5929 5932 5934 5935
5910 5912 5914 5916 5916 5917 5914 5909 5903 5905 5909 5909 5906 5910 5910 5911 5912 5912 5912 5911 5909 5908 5908 5907 5908 5909 5911 5911 5910 5908 5908 5912 5914 5912 5911 5912 5910 5906 5908 5910 5913 5914 5919 5922 5926 5929 5932 5934 5935
5907 5910 5913 5913 5914 5912 5911 5913 5904 5909 5905 5906 5907 5908 5906 5907 5907 5909 5909 5909 5908 5907 5908 5907 5907 5908 5909 5911 5911 5910 5909 5907 5908 5910 5910 5909 5909 5910 5911 5912 5914 5916 5918 5922 5924 5928 5930 5933 5934
5906 5908 5906 5908 5911 5912 5916 5915 5907 5906 5904 5901 5902 5906 5904 5903 5902 5904 5905 5905 5906 5905 5905 5906 5906 5906 5907 5908 5909 5909 5909 5910 5910 5909 5909 5910 5912 5911 5911 5912 5915 5916 5919 5922 5924 5926 5928 5930 5931
5904 5904 5907 5910 5910 5910 5911 5910 5903 5902 5900 5898 5896 5901 5900 5898 5897 5897 5899 5901 5902 5902 5902 5902 5903 5903 5903 5904 5906 5906 5907 5908 5908 5909 5909 5909 5910 5911 5911 5912 5913 5916 5917 5920 5923 5924 5926 5926 5928
5906 5904 5905 5907 5909 5909 5911 5908 5903 5899 5897 5896 5893 5896 5896 5894 5893 5890 5883 5892 5896 5897 5898 5898 5899 5900 5900 5901 5902 5903 5903 5904 5905 5906 5906 5907 5908 5909 5911 5913 5913 5914 5915 5917 5920 5923 5924 5924 5925
5901 5900 5900 5904 5906 5907 5907 5899 5891 5899 5890 5889 5889 5891 5889 5891 5890 5878 5862 5875 5885 5888 5892 5893 5895 5897 5898 5898 5899 5900 5900 5900 5900 5902 5903 5903 5904 5906 5908 5910 5912 5914 5914 5916 5918 5920 5922 5922 5923
Wind_Speed
17 16 13 9 8 4 7 2 2 3 9 11 14 12 14 11 13 13 16 16 18 14 15 16 14 12 12 14 12 13 13 13 14 14 15 13 12 13 14 17 17 17 17 18 17 14 12 13 12
18 14 10 10 12 11 7 5 2 5 6 8 13 20 19 17 16 16 17 17 17 15 15 16 15 12 12 14 13 12 13 13 14 13 12 13 12 12 12 15 16 15 15 14 15 14 14 11 11
17 14 12 10 12 11 11 7 4 4 7 7 6 8 15 22 22 20 18 19 18 16 17 16 15 12 13 13 12 11 12 12 13 12 11 10 11 11 12 13 14 14 14 13 12 13 13 14 12
14 15 18 18 14 12 12 11 8 3 6 7 7 9 8 15 22 23 19 19 20 22 18 17 15 12 12 13 11 11 12 12 12 11 11 8 8 9 11 11 12 12 12 12 12 11 11 12 13
17 24 25 19 16 14 14 11 9 4 4 9 9 10 10 11 27 28 26 22 23 18 16 16 16 14 13 13 12 11 10 11 11 10 12 10 7 6 9 9 11 11 10 11 11 11 9 10 10
13 15 22 19 21 18 16 14 17 15 9 4 8 11 9 2 8 24 34 29 23 18 17 18 18 16 14 14 12 10 10 9 9 9 11 9 9 7 6 6 8 10 9 9 10 10 9 9 10
23 30 20 22 20 19 19 20 19 15 13 12 3 5 3 4 6 20 28 23 18 20 19 20 18 17 16 14 11 10 10 9 7 8 10 10 9 10 9 5 5 6 6 7 8 7 7 8 8
30 16 28 25 23 19 19 19 16 20 21 23 9 3 2 5 6 13 21 25 23 22 20 20 18 17 15 14 13 10 9 9 8 6 9 8 7 10 10 8 6 4 4 5 5 6 6 5 6
28 25 13 14 20 19 20 22 20 18 17 22 22 9 2 1 8 6 25 27 23 22 22 20 19 16 15 13 11 10 7 7 8 6 7 6 5 5 7 6 6 4 4 6 5 4 4 5 5
27 22 21 21 23 18 21 21 17 21 21 21 25 25 13 8 8 8 25 22 28 25 21 20 17 15 14 13 11 8 6 6 8 7 6 5 5 6 4 2 2 0 2 2 4 5 6 7 6
21 15 20 19 19 19 19 15 15 24 23 21 19 22 24 11 9 16 11 10 24 23 21 19 19 16 14 12 8 6 6 7 8 7 5 4 4 4 5 3 2 1 1 1 3 5 6 5 5
21 19 18 19 18 21 24 22 28 30 24 18 18 16 19 22 15 10 10 14 24 25 18 18 20 17 14 11 9 6 6 7 8 6 4 1 2 3 4 3 3 4 1 3 3 3 5 3 3
10 18 18 15 16 18 17 20 23 25 25 25 17 16 14 18 16 15 14 17 19 18 18 15 12 14 13 11 8 6 6 7 7 6 4 2 1 3 4 5 6 4 2 1 1 3 3 3 3
12 16 13 16 16 14 21 15 20 22 23 26 24 15 15 12 13 12 14 15 14 12 13 12 10 10 11 10 10 9 7 7 6 7 5 5 5 3 3 6 7 6 4 2 1 3 1 2 2
3 5 5 23 21 18 15 10 19 22 19 22 24 19 15 15 11 7 9 8 9 10 8 10 10 10 9 8 8 7 6 3 6 5 4 5 6 6 8 8 11 5 3 3 2 2 3 4 4
11 15 5 18 25 21 19 6 23 21 15 17 20 20 17 14 14 11 4 6 10 10 10 10 9 8 9 8 9 10 9 7 9 7 5 5 6 8 8 5 10 4 3 3 3 4 5 7 6
10 9 13 10 21 20 21 21 24 20 16 16 18 19 18 17 14 12 8 5 5 9 11 12 12 12 12 12 14 13 11 11 11 10 8 7 7 11 10 4 5 4 3 3 4 6 7 6 4
6 15 20 7 8 10 12 19 19 18 16 14 20 21 18 17 16 13 10 8 4 1 3 6 9 11 14 13 13 12 13 12 13 11 9 8 7 11 7 7 8 3 3 2 4 7 7 4 4
18 9 6 18 16 6 8 8 22 10 14 8 16 18 17 17 18 15 14 10 5 2 1 2 3 4 7 9 11 12 14 12 11 9 8 9 7 8 9 11 10 4 3 1 4 6 6 6 7
15 12 12 19 13 3 6 8 15 12 7 15 18 19 17 16 18 18 16 13 11 8 7 7 4 4 5 5 7 8 10 9 7 7 10 9 10 10 11 12 11 5 2 2 6 7 4 6 6
10 10 11 24 18 9 6 19 22 9 9 5 12 15 16 15 14 18 19 15 11 10 7 5 6 7 7 8 8 8 9 6 6 12 19 4 12 15 13 14 12 12 3 6 8 7 5 3 5
10 9 14 12 14 8 7 19 29 26 13 20 8 12 14 13 12 13 18 18 13 9 7 5 3 5 5 5 2 1 8 12 10 9 7 8 10 9 12 18 17 14 6 8 7 6 4 3 4
12 17 19 12 11 10 9 14 24 25 16 9 13 10 14 14 12 10 13 18 12 10 8 4 3 1 1 1 2 4 3 5 2 3 2 4 7 8 8 13 18 13 9 9 8 4 3 3 4
8 8 9 14 10 10 12 13 27 21 11 4 7 16 18 18 11 11 12 14 13 9 7 6 3 1 3 3 4 4 2 4 6 7 9 8 7 6 7 12 15 15 11 10 8 4 3 4 4
6 9 10 14 11 7 10 8 11 20 5 8 20 27 25 20 16 14 13 11 10 11 7 5 4 3 5 5 4 3 2 4 4 6 7 6 9 10 3 4 7 16 13 10 7 3 5 7 8
7 3 2 10 8 12 15 7 18 8 17 20 26 28 25 24 22 17 16 13 6 7 9 6 3 4 6 7 5 3 0 4 6 7 4 6 7 6 6 4 4 9 10 8 6 5 8 9 9
7 4 15 8 9 9 7 10 4 14 16 20 26 26 26 22 23 22 17 15 10 9 8 9 5 3 5 10 9 7 5 5 6 6 5 1 2 2 2 4 4 4 3 5 7 7 9 9 10
12 8 4 2 7 7 4 14 15 18 22 26 33 25 23 22 21 22 23 17 16 16 13 11 10 7 5 7 10 10 10 8 7 5 6 5 3 2 4 3 0 4 7 9 11 10 10 10 9
11 12 9 8 8 9 5 11 23 27 32 34 37 32 25 19 16 24 31 24 18 20 15 10 10 11 9 7 9 11 11 11 11 8 6 6 5 4 4 2 3 2 2 6 8 9 9 8 9
18 10 3 3 6 8 13 21 17 18 30 35 36 30 20 17 16 29 8 21 27 14 7 6 7 6 10 10 11 12 10 10 11 9 6 6 8 7 6 4 3 2 2 1 0 3 6 9 9
Wind_Direction
65 66 64 62 60 48 35 30 277 267 227 243 245 227 210 187 188 206 188 165 158 153 149 147 145 142 131 124 120 114 113 104 91 84 82 80 78 76 72 71 76 83 75 77 77 81 91 66 59
66 69 68 54 54 54 22 31 315 261 242 263 252 233 219 213 214 206 201 189 175 166 155 151 150 146 139 134 133 128 121 108 98 90 86 81 76 78 72 72 73 77 73 73 71 72 76 68 56
68 70 83 72 57 43 36 5 341 303 255 278 239 236 232 226 214 207 206 190 181 183 168 159 158 153 146 139 138 130 120 107 98 93 89 82 77 72 68 67 67 65 68 69 72 78 74 73 62
71 68 65 68 51 27 47 22 7 282 270 259 236 234 242 230 210 203 200 190 183 194 169 165 161 156 150 141 141 131 126 113 100 91 77 78 81 76 74 68 68 62 63 65 69 79 73 63 56
82 66 51 49 43 33 38 32 26 24 244 234 222 228 271 288 228 197 196 192 189 184 165 168 162 156 151 149 141 133 129 117 109 99 84 74 80 73 68 67 66 58 55 60 66 65 65 58 54
120 79 67 45 42 39 35 48 50 42 32 276 238 230 262 216 294 217 209 199 171 172 177 174 168 162 158 153 143 138 134 121 114 104 93 76 63 74 77 59 61 57 48 50 52 57 56 49 46
66 97 102 47 44 44 38 39 37 56 62 43 299 205 242 267 311 201 187 186 185 182 178 177 170 164 160 152 142 139 138 131 117 102 93 82 67 63 66 68 59 55 55 49 52 51 46 51 45
53 60 48 37 38 45 46 47 40 43 43 33 31 111 210 257 287 200 204 186 179 183 176 175 170 167 158 152 145 142 144 138 132 115 96 84 66 61 63 61 62 49 36 53 48 45 39 30 38
70 70 61 70 39 37 45 47 42 44 39 52 57 53 24 334 306 253 198 178 179 183 178 176 169 164 160 155 141 137 130 145 139 130 104 92 65 51 51 71 64 59 25 40 52 36 26 18 15
46 50 54 45 34 33 45 45 43 48 44 39 46 46 48 40 360 177 180 190 184 172 176 173 158 170 162 151 156 157 134 149 139 142 119 87 69 49 18 11 89 81 360 21 41 25 26 9 348
51 42 47 47 37 39 54 42 45 48 40 38 45 52 55 51 50 126 118 178 196 181 167 161 165 177 153 158 153 162 152 160 154 152 144 106 66 22 7 337 251 233 245 261 14 9 13 81 345
30 41 41 42 32 39 46 37 44 45 36 39 40 44 50 56 64 103 117 144 150 161 161 167 175 158 160 166 183 173 180 164 162 154 142 107 44 28 18 360 264 228 204 306 315 360 360 338 4
33 18 20 16 16 31 27 45 43 39 37 34 43 50 55 63 63 90 107 139 149 152 161 165 175 157 162 173 168 180 184 185 178 186 192 163 283 10 357 328 333 12 34 346 309 342 323 320 315
11 353 357 358 352 6 13 13 35 37 31 34 33 49 59 73 93 99 108 114 128 153 162 167 168 179 183 185 181 202 179 168 202 211 216 229 259 295 278 331 325 302 42 95 66 312 279 245 337
309 273 162 2 341 339 38 34 39 40 28 30 32 41 55 61 78 116 126 119 139 154 163 177 180 191 197 206 213 214 214 188 237 237 236 262 282 280 304 314 313 360 40 55 24 89 75 129 109
256 279 76 345 345 328 342 56 42 41 30 32 35 42 48 55 58 69 108 169 176 184 202 210 215 227 244 242 256 259 258 240 239 251 268 277 279 273 226 315 338 53 19 63 57 125 110 111 121
310 85 85 314 352 352 349 323 32 23 30 30 31 37 40 42 45 53 66 90 185 207 214 222 231 245 252 262 257 258 257 251 245 238 235 251 265 268 281 297 333 31 39 85 105 115 123 104 101
356 336 10 45 326 322 342 320 342 360 16 51 41 28 29 37 40 37 27 31 36 87 211 234 238 236 246 247 249 242 248 240 235 228 228 235 239 274 302 315 297 22 53 89 119 137 125 110 108
323 318 301 282 287 12 337 333 307 317 336 353 358 15 24 28 30 26 24 16 341 349 316 247 219 197 246 244 235 227 236 238 226 223 231 244 245 259 287 304 314 31 17 116 141 148 132 131 132
282 288 285 291 282 50 343 309 272 271 331 337 346 4 7 20 25 22 16 6 360 338 291 283 276 230 194 220 222 212 221 222 218 242 228 227 250 253 258 274 287 302 336 186 172 170 158 144 136
298 279 282 299 325 7 279 269 273 275 94 7 339 341 2 359 13 19 13 2 356 353 342 300 261 255 246 259 262 252 237 215 236 241 248 238 258 263 255 256 261 281 201 201 197 188 187 155 152
289 269 261 251 262 274 256 294 304 305 309 297 326 314 323 353 348 1 11 4 356 356 360 5 330 265 261 273 286 238 234 225 221 215 272 309 281 277 257 254 251 261 221 201 205 192 189 198 198
261 246 265 303 284 268 268 277 277 287 303 265 327 319 316 320 345 341 357 7 354 354 353 357 348 316 227 212 89 102 98 64 265 308 138 22 321 307 232 251 231 238 212 194 212 200 220 242 230
281 303 359 360 348 282 285 271 280 282 306 90 269 304 309 295 322 321 334 360 356 348 355 345 342 287 192 153 122 106 68 67 330 6 8 24 360 322 243 227 228 226 196 187 200 201 254 276 274
317 339 308 284 282 321 260 265 277 51 107 241 290 300 302 284 286 300 312 335 353 348 354 353 323 275 217 178 150 122 40 38 30 354 5 4 20 24 35 218 244 205 170 181 183 221 279 298 296
199 250 260 295 267 266 299 280 294 300 254 280 296 310 290 269 272 277 287 300 328 352 341 342 321 276 223 218 200 173 184 350 360 3 11 21 38 42 59 81 90 127 165 179 192 242 286 300 306
229 164 271 258 269 290 276 307 161 184 254 279 293 303 295 264 259 254 263 275 271 299 306 307 303 240 241 233 234 240 246 290 326 343 337 327 7 339 44 71 81 128 187 213 220 243 263 286 303
320 267 21 286 277 295 297 262 247 249 268 291 289 293 305 263 247 244 251 253 261 274 279 276 284 272 233 242 248 254 262 275 289 303 311 282 267 257 223 157 248 244 234 234 246 248 261 270 278
260 279 265 261 260 261 280 285 279 273 273 280 290 297 300 250 224 270 251 253 251 260 264 266 271 278 265 254 261 264 265 271 274 282 293 274 240 227 200 201 140 108 264 259 259 261 264 262 259
320 280 293 274 257 261 264 260 199 285 284 295 294 295 293 236 228 259 250 245 244 222 237 254 230 255 276 272 271 269 269 268 270 264 261 246 222 203 212 220 242 180 118 102 299 259 270 270 278